Flag for Qatar Weather past 2 weeks in Al Khor, Qatar

Now
111 °F

Clear.


Feels Like: 115 °F
Forecast: 89 / 105 °F
Wind: 7 mph from South

Location: Doha International Airport

Current Time: Aug 1, 2015 at 10:58:46 AM

Latest Report: Aug 1, 2015 at 10:00 AM


Visibility: 5 mi

Pressure: 29.53 "Hg

Humidity: 21%

Dew point: 63 °F

Historic Weather in Al Khor — Graph

°F

Al Khor temperature yesterday

Maximum temperature yesterday: 115 °F (at 12:00 PM)
Minimum temperature yesterday: 93 °F (at 12:00 AM)
Average temperature yesterday: 101 °F

Past Weeks' High & Low Weather Summary

 TemperatureHumidityPressure
High118 °F (Jul 27, 5:00 PM)84% (Jul 23, 2:00 AM)32.26 "Hg (Jul 23, 2:00 AM)
Low88 °F (Jul 23, 4:00 AM)6% (Jul 19, 1:00 PM)29.33 "Hg (Jul 17, 2:00 PM)
Average100 °F43%29.45 "Hg
* Reported Jul 17 9:00 AM — Aug 1 9:00 AM, Al Khor, Weather by CustomWeather, © 2015

Note: Actual official high and low records may vary slightly from our data, if they occured in-between our weather recording intervals... More about our weather records

Advertising

Al Khor weather history for previous 24 hours

 ConditionsComfort  
Time TempWeatherWind HumidityBarometerVisibility
9:00 AM
Sat, Aug 1
106 °FClear.5 mph32%29.53 "Hg6 mi
8:00 AM102 °FClear.5 mph37%29.53 "Hg6 mi
7:00 AM97 °FClear.5 mph56%29.50 "Hg5 mi
6:00 AM93 °FClear.16 mph75%29.50 "Hg6 mi
5:00 AM93 °FPassing clouds.9 mph75%29.50 "Hg5 mi
4:00 AM93 °FClear.9 mph75%29.50 "Hg10 mi
3:00 AM91 °FClear.7 mph80%29.47 "Hg10 mi
2:00 AM91 °FClear.6 mph80%29.47 "Hg10 mi
1:00 AM93 °FClear.5 mph75%29.47 "Hg10 mi
12:00 AM93 °FPassing clouds.6 mph75%29.47 "HgN/A
11:00 PM
Fri, Jul 31
93 °FClear.3 mph75%29.47 "Hg10 mi
10:00 PM95 °FClear.2 mph60%29.47 "Hg10 mi
9:00 PM95 °FClear.3 mph60%29.47 "Hg10 mi
8:00 PM95 °FClear.3 mph71%29.47 "Hg6 mi
7:00 PM97 °FClear.6 mph67%29.45 "Hg4 mi
6:00 PM99 °FClear.7 mph64%29.45 "Hg4 mi
5:00 PM100 °FClear.7 mph60%29.45 "Hg4 mi
4:00 PM104 °FClear.8 mph45%29.45 "Hg6 mi
3:00 PM104 °FClear.12 mph51%29.45 "Hg6 mi
2:00 PM102 °FClear.10 mph57%29.45 "Hg5 mi
1:00 PM113 °FClear.8 mph27%29.45 "Hg5 mi
12:00 PM115 °FPassing clouds.6 mph16%29.47 "HgN/A
11:00 AM113 °FPassing clouds.12 mph22%29.47 "HgN/A
10:00 AM111 °FPassing clouds.10 mph21%29.50 "HgN/A
Weather by CustomWeather, © 2015

See weather overviewHow to use our weather pages